Weather Roundup
Issued by NWS Chicago, IL

Home | Current Version | Previous Version | Graphics & Text | Print | Product List | Glossary On
Versions: 1 2 3 4 5 6 7 8 9 10 11 12 13 14 15 16 17 18 19 20 21 22 23 24 25 26 27 28 29 30 31 32 33 34 35 36 37 38 39 40 41 42 43 44 45 46 47 48 49 50
000
NZUS59 KLOT 281603
HRRLOT

CHICAGO AREA WEATHER ROUNDUP
NATIONAL WEATHER SERVICE CHICAGO/ROMEOVILLE IL
1100 AM CDT TUE MAR 28 2017

NOTE: "FAIR" INDICATES FEW OR NO CLOUDS BELOW 12,000 FEET WITH NO
SIGNIFICANT WEATHER AND/OR OBSTRUCTIONS TO VISIBILITY.

* THESE STATIONS ARE NOT UNDER NWS QUALITY CONTROL. THEY ALSO MAY NOT
  REPORT WEATHER SUCH AS PRECIPITATION OR FOG.

ILZ005-006-012>014-019>023-281700-
NORTHEAST ILLINOIS

CITY           SKY/WX    TMP DP  RH WIND       PRES   REMARKS
OHARE          CLOUDY    43  38  82 N10       30.12R
MIDWAY         CLOUDY    43  37  79 N13G21    30.13R
AURORA         CLOUDY    46  39  76 NE10      30.12S
LANSING*       CLOUDY    42  39  87 N9        30.13R
JOLIET*        CLOUDY    46  40  77 NE9       30.13R
WAUKEGAN       CLOUDY    42  37  82 NE13      30.13R
DUPAGE AIRPORT CLOUDY    43  39  86 NE7       30.12R
WHEELING       CLOUDY    42  39  89 N12       30.14R
MORRIS*        CLOUDY    46  39  76 CALM      30.11S
NORTHERLY ISL    N/A     40  37  89 MISG        N/A
$$

WIZ051-052-058>065-066-070>072-281700-
SOUTHEAST WISCONSIN

CITY           SKY/WX    TMP DP  RH WIND       PRES   REMARKS
MILWAUKEE      PTSUNNY   43  36  76 NE13      30.14R
KENOSHA*       CLOUDY    44  37  76 N8        30.13R
RACINE*        CLOUDY    42  36  79 N13       30.15R
WAUKESHA       MOSUNNY   45  36  70 NE7       30.13S
WEST BEND      SUNNY     46  36  66 NE10      30.12F
$$

INZ001>003-010>013-019-020-281700-
NORTHWEST INDIANA

CITY           SKY/WX    TMP DP  RH WIND       PRES   REMARKS
GARY*          CLOUDY    43  37  81 N17       30.12R
MICHIGAN CITY* NOT AVBL
RENSSELAER*    NOT AVBL
VALPARAISO     CLOUDY    42  40  92 N8        30.10R FOG
$$

LMZ740>746-281700-
SOUTHERN LAKE MICHIGAN

STATION/POSITION TIME  SKY/WX   TEMP WIND        PRES    VSBY
                                AIR  DIR/SP/G
                 (UTC)          (F)  (DEG/KT/KT) (MB)    (MI)
HARRISON CRIB    1510            39  350/ 15/ 16   N/A
BURNHAM HARBOR   1530            40  340/ 11/ 14   N/A
CALUMET HARBOR   1530            39  330/ 11/ 14 1019.4F
BURNS HARBOR     1530            38  350/ 10/ 12 1020.0R
MICHIGAN CITY    1510            38  360/ 13/ 15   N/A
$$

ABBREVIATIONS USED IN REMARKS
   TC - TEMPERATURE IN CELSIUS
  WCI - WIND CHILL INDEX
   HX - HEAT INDEX
  VSB - VISIBILITY
$$




USA.gov is the U.S. government's official web portal to all federal, state and local government web resources and services.